Temp
-10 -10 -10 -11 -11 -11 -10 -11 -11 -10 -11 -12 -11 -10 -10 -11 -10 -10 -10 -11 -11 -11 -11 -11 -10 -11 -10 -10 -10 -10 -10 -11 -11 -11 -11 -10 -11 -10 -11 -10 -10 -10 -10 -10
-10 -9 -10 -11 -11 -11 -10 -10 -10 -10 -11 -11 -11 -10 -10 -10 -10 -10 -10 -11 -11 -11 -11 -11 -10 -10 -10 -10 -10 -10 -10 -11 -11 -11 -11 -11 -11 -11 -11 -11 -10 -10 -11 -11
-10 -10 -10 -10 -10 -11 -11 -11 -11 -11 -11 -11 -10 -10 -9 -10 -10 -10 -10 -11 -11 -11 -11 -10 -10 -10 -10 -10 -9 -10 -11 -11 -11 -11 -11 -11 -11 -11 -11 -11 -11 -11 -11 -11
-10 -10 -10 -11 -10 -11 -10 -11 -11 -11 -11 -11 -11 -9 -9 -9 -10 -10 -10 -10 -11 -11 -11 -10 -10 -10 -10 -10 -10 -10 -11 -11 -11 -11 -11 -11 -11 -11 -11 -11 -11 -11 -11 -11
-10 -11 -11 -11 -11 -12 -11 -11 -11 -11 -11 -11 -11 -10 -8 -9 -9 -10 -10 -10 -11 -11 -11 -10 -11 -10 -10 -10 -10 -11 -11 -11 -11 -10 -11 -11 -11 -12 -12 -11 -11 -11 -11 -11
-12 -12 -12 -12 -12 -12 -12 -11 -12 -12 -12 -10 -10 -11 -8 -10 -10 -10 -10 -10 -11 -11 -11 -11 -11 -10 -10 -11 -11 -11 -11 -11 -11 -11 -11 -11 -11 -12 -12 -12 -12 -11 -11 -11
-12 -12 -13 -13 -13 -13 -13 -13 -13 -12 -12 -10 -11 -11 -9 -10 -10 -11 -10 -11 -12 -11 -11 -12 -12 -13 -12 -12 -12 -12 -11 -11 -11 -11 -12 -11 -11 -12 -12 -12 -12 -12 -12 -12
-14 -13 -13 -13 -13 -14 -14 -14 -13 -14 -13 -11 -12 -9 -9 -11 -11 -11 -11 -12 -13 -12 -12 -11 -13 -13 -13 -12 -12 -12 -11 -12 -12 -12 -12 -12 -12 -12 -12 -12 -12 -12 -12 -12
-16 -15 -14 -14 -14 -14 -13 -13 -14 -14 -12 -12 -10 -10 -10 -10 -11 -11 -12 -12 -12 -12 -13 -13 -13 -13 -13 -13 -13 -13 -12 -12 -12 -12 -12 -12 -12 -12 -13 -13 -13 -13 -13 -13
-16 -15 -15 -15 -15 -14 -14 -14 -14 -14 -14 -13 -9 -11 -10 -11 -13 -13 -14 -14 -13 -13 -13 -13 -13 -13 -14 -13 -13 -13 -13 -13 -12 -13 -12 -12 -12 -13 -13 -13 -13 -13 -13 -14
-16 -16 -15 -15 -15 -14 -14 -15 -15 -15 -15 -14 -12 -9 -10 -12 -12 -12 -14 -14 -14 -14 -14 -14 -14 -14 -14 -13 -13 -13 -13 -13 -13 -13 -13 -12 -13 -13 -14 -13 -13 -13 -14 -14
-16 -16 -16 -15 -15 -15 -15 -15 -15 -15 -13 -14 -14 -10 -10 -11 -12 -13 -14 -13 -14 -15 -14 -14 -14 -13 -14 -14 -14 -13 -13 -13 -14 -13 -13 -13 -13 -14 -14 -14 -13 -13 -14 -15
-16 -16 -15 -15 -15 -15 -15 -15 -15 -15 -15 -15 -14 -12 -12 -12 -13 -13 -14 -14 -15 -15 -14 -14 -14 -14 -14 -14 -14 -15 -14 -15 -14 -14 -14 -14 -14 -14 -14 -14 -14 -15 -15 -15
-17 -16 -16 -16 -16 -16 -16 -16 -16 -16 -18 -13 -14 -13 -11 -12 -13 -13 -14 -15 -15 -15 -15 -15 -15 -15 -14 -14 -14 -15 -15 -14 -14 -14 -14 -14 -14 -14 -15 -15 -15 -15 -16 -16
-17 -18 -17 -17 -17 -16 -16 -16 -16 -16 -15 -16 -14 -15 -13 -12 -14 -14 -15 -15 -15 -15 -16 -15 -15 -15 -15 -15 -15 -14 -15 -15 -15 -14 -14 -14 -14 -14 -15 -15 -15 -16 -17 -17
-17 -18 -18 -18 -17 -16 -17 -17 -17 -15 -15 -16 -16 -16 -13 -15 -15 -14 -15 -15 -16 -16 -17 -17 -17 -16 -15 -15 -15 -15 -15 -15 -15 -15 -15 -15 -15 -15 -16 -16 -17 -17 -18 -18
-20 -20 -18 -18 -18 -18 -18 -16 -15 -17 -17 -17 -17 -16 -15 -15 -15 -15 -16 -16 -17 -17 -18 -18 -17 -16 -16 -16 -15 -15 -15 -16 -16 -16 -16 -16 -16 -16 -16 -16 -18 -18 -19 -19
-20 -20 -20 -19 -19 -19 -16 -17 -17 -16 -16 -16 -17 -17 -17 -16 -16 -17 -17 -18 -18 -18 -19 -18 -17 -17 -16 -16 -16 -16 -17 -17 -17 -17 -17 -17 -17 -18 -18 -19 -19 -19 -19 -19
-21 -20 -20 -20 -20 -19 -20 -18 -17 -17 -17 -17 -17 -17 -17 -18 -18 -18 -18 -19 -19 -19 -19 -18 -18 -18 -18 -18 -18 -18 -18 -18 -18 -18 -18 -18 -19 -19 -20 -20 -20 -20 -20 -19
-22 -21 -21 -21 -21 -21 -19 -19 -19 -19 -20 -18 -16 -17 -20 -19 -19 -18 -18 -20 -19 -19 -19 -20 -19 -19 -18 -18 -18 -19 -19 -19 -19 -19 -19 -20 -20 -20 -20 -20 -20 -20 -20 -19
-23 -22 -22 -21 -22 -22 -21 -20 -20 -21 -20 -20 -21 -20 -20 -20 -20 -19 -19 -18 -18 -19 -20 -20 -20 -20 -19 -19 -19 -19 -20 -20 -20 -20 -20 -20 -20 -21 -21 -20 -20 -20 -20 -20
-24 -23 -23 -22 -22 -22 -22 -22 -21 -21 -21 -21 -21 -21 -20 -20 -19 -19 -19 -19 -19 -19 -20 -21 -20 -20 -19 -19 -20 -20 -21 -20 -20 -20 -20 -21 -21 -21 -21 -21 -21 -20 -20 -20
-24 -24 -22 -21 -21 -22 -23 -22 -21 -21 -21 -21 -21 -21 -21 -21 -21 -21 -21 -20 -20 -20 -21 -21 -21 -21 -20 -20 -20 -20 -21 -21 -20 -20 -21 -21 -21 -22 -22 -21 -21 -21 -21 -22
-24 -24 -24 -23 -23 -23 -23 -22 -22 -22 -22 -22 -22 -22 -22 -22 -22 -22 -22 -21 -21 -21 -21 -22 -22 -21 -22 -21 -21 -21 -21 -21 -20 -21 -20 -21 -22 -22 -22 -22 -22 -22 -22 -22
-26 -25 -24 -24 -23 -23 -22 -22 -22 -22 -23 -22 -22 -22 -23 -22 -22 -22 -22 -22 -22 -22 -22 -22 -22 -21 -21 -21 -21 -21 -21 -21 -21 -21 -20 -21 -22 -22 -22 -22 -22 -22 -22 -22
-26 -26 -26 -26 -25 -24 -23 -24 -24 -23 -23 -22 -22 -22 -22 -22 -22 -22 -22 -22 -21 -22 -22 -22 -22 -22 -22 -22 -22 -22 -22 -22 -22 -22 -21 -21 -22 -23 -23 -22 -23 -22 -22 -23
Height
5805 5801 5806 5810 5801 5798 5797 5796 5792 5797 5799 5778 5780 5779 5788 5795 5788 5788 5790 5790 5787 5784 5782 5779 5780 5776 5774 5772 5769 5767 5766 5764 5763 5761 5759 5758 5755 5753 5752 5750 5749 5747 5745 5743
5794 5789 5801 5795 5794 5788 5786 5784 5784 5784 5787 5775 5768 5766 5773 5778 5781 5780 5780 5782 5779 5775 5771 5768 5769 5766 5764 5762 5759 5756 5754 5753 5752 5750 5749 5747 5744 5743 5741 5739 5737 5736 5733 5730
5786 5782 5785 5784 5783 5779 5779 5773 5774 5770 5775 5761 5760 5748 5760 5766 5766 5770 5773 5772 5771 5767 5763 5760 5759 5756 5753 5750 5746 5745 5743 5741 5740 5740 5740 5738 5734 5731 5729 5727 5726 5723 5721 5718
5770 5774 5774 5769 5767 5770 5765 5769 5763 5761 5759 5750 5749 5731 5745 5755 5755 5759 5762 5764 5762 5757 5755 5752 5747 5745 5742 5739 5736 5734 5732 5731 5731 5731 5729 5727 5724 5721 5718 5716 5714 5711 5708 5706
5761 5760 5759 5756 5762 5755 5752 5752 5754 5750 5745 5738 5734 5728 5725 5740 5740 5746 5748 5751 5750 5747 5745 5739 5737 5735 5732 5729 5725 5723 5722 5720 5720 5719 5718 5717 5714 5710 5707 5704 5701 5698 5696 5693
5750 5750 5744 5746 5746 5744 5742 5740 5739 5737 5732 5719 5725 5727 5718 5723 5726 5730 5732 5734 5735 5730 5723 5726 5725 5723 5720 5718 5715 5713 5712 5710 5709 5709 5707 5706 5704 5701 5696 5692 5688 5685 5682 5679
5736 5735 5735 5733 5733 5731 5731 5727 5723 5719 5714 5710 5717 5710 5706 5709 5711 5712 5715 5719 5716 5718 5716 5710 5710 5709 5709 5707 5705 5704 5701 5700 5700 5699 5697 5694 5692 5690 5684 5679 5674 5671 5668 5665
5717 5717 5720 5724 5722 5718 5715 5712 5708 5703 5704 5700 5703 5689 5696 5701 5702 5701 5700 5706 5707 5706 5703 5701 5698 5699 5698 5697 5696 5693 5691 5690 5690 5688 5685 5682 5679 5677 5672 5666 5660 5656 5653 5650
5704 5700 5702 5704 5705 5702 5701 5695 5699 5690 5692 5687 5684 5682 5685 5687 5687 5688 5688 5693 5693 5694 5692 5691 5688 5687 5683 5683 5682 5679 5678 5676 5674 5671 5670 5667 5664 5661 5656 5650 5646 5642 5638 5635
5684 5678 5686 5685 5686 5687 5681 5688 5683 5677 5674 5671 5670 5671 5672 5674 5677 5672 5676 5678 5682 5681 5680 5677 5676 5673 5669 5667 5665 5664 5664 5662 5659 5658 5655 5652 5649 5645 5641 5636 5631 5626 5622 5618
5668 5662 5664 5666 5670 5675 5671 5668 5667 5664 5659 5654 5659 5664 5663 5658 5661 5664 5664 5663 5664 5667 5666 5664 5661 5659 5653 5650 5651 5650 5649 5646 5645 5643 5641 5636 5634 5630 5625 5619 5614 5609 5604 5600
5646 5636 5636 5644 5653 5655 5650 5651 5647 5644 5649 5640 5643 5639 5657 5657 5654 5655 5653 5654 5654 5651 5650 5647 5645 5642 5636 5636 5636 5634 5631 5629 5627 5626 5625 5623 5620 5614 5608 5602 5598 5594 5589 5583
5623 5615 5614 5621 5630 5633 5629 5636 5633 5628 5626 5618 5621 5626 5651 5650 5643 5643 5642 5641 5635 5633 5633 5629 5625 5623 5624 5622 5617 5615 5614 5613 5611 5609 5608 5606 5602 5597 5591 5586 5582 5576 5571 5566
5608 5602 5600 5602 5612 5615 5612 5614 5614 5608 5599 5607 5603 5611 5628 5631 5633 5631 5628 5622 5615 5615 5611 5609 5608 5608 5606 5607 5605 5603 5601 5599 5596 5594 5592 5589 5585 5579 5573 5569 5564 5558 5554 5550
5590 5585 5587 5586 5591 5597 5596 5597 5596 5587 5593 5584 5594 5591 5607 5620 5613 5612 5610 5609 5601 5600 5593 5592 5589 5588 5588 5588 5587 5586 5582 5581 5579 5576 5573 5571 5567 5561 5554 5549 5544 5539 5535 5531
5569 5564 5566 5565 5575 5577 5576 5580 5579 5581 5580 5573 5575 5575 5596 5593 5592 5592 5595 5591 5580 5582 5580 5578 5576 5575 5572 5572 5571 5569 5568 5565 5561 5557 5554 5552 5548 5542 5536 5531 5526 5521 5516 5513
5546 5550 5549 5540 5552 5551 5539 5566 5573 5568 5566 5565 5555 5562 5572 5570 5576 5578 5573 5570 5566 5567 5564 5558 5559 5558 5558 5556 5554 5551 5547 5546 5543 5539 5535 5531 5528 5522 5517 5512 5507 5503 5499 5496
5531 5530 5528 5521 5527 5506 5526 5550 5549 5544 5547 5551 5542 5549 5551 5554 5556 5553 5550 5549 5549 5546 5545 5539 5538 5537 5539 5537 5533 5531 5530 5526 5523 5520 5515 5511 5506 5502 5498 5494 5491 5487 5484 5480
5516 5515 5505 5499 5493 5493 5498 5521 5531 5523 5514 5529 5525 5528 5534 5534 5531 5524 5533 5532 5522 5524 5522 5518 5516 5516 5518 5517 5514 5512 5509 5508 5505 5501 5496 5493 5487 5484 5481 5478 5474 5471 5468 5464
5494 5491 5486 5485 5474 5468 5485 5502 5511 5501 5464 5503 5511 5506 5505 5505 5494 5503 5514 5506 5502 5503 5500 5495 5491 5495 5497 5496 5493 5493 5491 5489 5486 5483 5479 5475 5473 5469 5466 5462 5458 5455 5452 5447
5468 5469 5460 5457 5453 5452 5467 5484 5486 5464 5469 5480 5481 5475 5475 5475 5474 5475 5479 5479 5479 5480 5480 5476 5470 5471 5476 5477 5475 5475 5474 5472 5469 5465 5463 5460 5457 5453 5450 5447 5444 5440 5435 5431
5447 5448 5445 5443 5437 5436 5442 5455 5457 5449 5450 5448 5448 5446 5447 5450 5453 5452 5455 5454 5457 5457 5454 5451 5450 5450 5455 5456 5453 5453 5455 5452 5449 5447 5446 5442 5439 5437 5434 5431 5427 5423 5418 5413
5422 5432 5429 5420 5418 5414 5421 5421 5429 5423 5413 5419 5423 5428 5423 5425 5428 5426 5432 5431 5431 5431 5432 5432 5433 5431 5434 5435 5434 5434 5433 5431 5430 5430 5430 5427 5422 5419 5416 5414 5410 5405 5402 5397
5399 5409 5389 5389 5398 5403 5407 5409 5403 5393 5396 5392 5394 5396 5400 5399 5402 5406 5409 5410 5409 5407 5408 5409 5411 5413 5414 5415 5414 5414 5413 5413 5411 5410 5411 5409 5407 5403 5398 5396 5392 5389 5385 5380
5376 5384 5374 5366 5377 5379 5383 5374 5374 5374 5374 5374 5376 5376 5377 5373 5375 5379 5380 5386 5388 5387 5384 5386 5388 5389 5392 5394 5394 5393 5393 5392 5393 5392 5391 5391 5388 5385 5381 5378 5375 5372 5368 5363
5344 5346 5341 5340 5358 5342 5344 5357 5352 5348 5353 5350 5346 5352 5355 5352 5351 5351 5352 5359 5370 5366 5363 5362 5365 5367 5371 5370 5371 5372 5373 5371 5373 5373 5370 5370 5369 5367 5365 5360 5358 5355 5350 5345
Wind_Speed
45 49 44 38 44 47 47 46 48 41 37 56 54 53 43 37 45 44 41 39 41 43 44 44 40 42 41 42 45 47 47 46 45 46 45 47 49 50 50 50 50 51 51 50
51 54 42 45 47 51 51 51 49 48 42 51 56 54 47 44 40 42 40 37 39 41 42 44 42 42 44 46 48 48 48 45 45 46 47 48 51 51 51 52 55 54 50 49
53 56 49 50 50 53 52 55 53 56 48 57 55 60 49 44 44 40 35 36 37 38 41 43 42 45 48 45 44 46 47 47 47 46 48 49 51 53 54 54 52 52 52 54
57 56 55 57 57 51 57 53 57 57 54 59 58 69 56 46 45 40 36 31 35 38 39 41 47 44 41 41 43 44 45 48 48 48 49 51 52 54 53 52 53 52 53 55
50 50 51 54 50 52 56 54 53 57 59 63 65 68 65 55 52 46 42 37 39 40 42 38 32 33 37 43 48 49 51 52 51 52 50 49 50 51 52 54 55 57 57 58
50 50 55 54 52 49 53 56 56 59 63 73 67 64 66 62 58 51 50 46 44 47 43 33 33 36 38 42 46 49 50 49 48 45 43 43 42 46 51 55 58 60 61 59
53 54 53 55 55 56 55 59 60 63 67 71 67 71 70 67 63 62 57 51 52 34 34 37 31 29 30 35 40 44 47 47 46 42 42 41 39 41 50 55 58 59 58 57
56 57 56 54 54 57 59 60 63 64 68 72 70 73 69 67 65 64 63 55 40 30 31 35 27 30 35 39 41 45 47 45 44 44 43 44 48 47 48 53 57 57 55 58
62 61 60 61 60 58 60 65 61 63 68 72 69 69 67 65 67 66 61 51 23 38 24 27 36 40 38 42 44 47 47 46 48 47 49 54 51 50 52 54 55 55 58 60
69 70 63 61 64 66 68 64 64 67 68 71 70 70 65 64 68 53 29 24 43 33 33 34 38 42 43 45 49 51 51 51 52 53 55 58 48 54 57 58 57 58 60 59
74 77 72 68 65 63 67 69 69 68 70 74 72 63 62 67 62 61 61 51 49 45 38 42 44 46 54 56 54 54 55 57 57 57 56 53 51 55 58 59 58 57 59 61
77 76 75 73 71 71 73 69 70 74 72 77 76 67 61 61 64 59 62 59 49 53 53 51 50 53 58 58 57 57 59 60 60 58 52 53 56 59 62 62 62 63 63 63
70 77 76 71 66 63 69 68 68 74 77 78 74 69 55 54 60 60 60 59 56 55 54 56 58 60 61 60 60 60 61 61 61 59 57 58 59 62 65 66 65 66 66 64
59 62 63 60 58 56 59 61 65 64 67 70 71 69 59 62 57 56 55 54 55 55 59 62 64 63 62 60 60 58 57 58 56 60 63 61 64 67 70 70 70 70 68 65
64 66 60 57 55 54 62 61 60 67 70 74 74 73 67 54 58 56 55 55 57 60 61 61 60 59 58 56 56 58 59 60 64 67 66 65 67 72 72 73 71 70 67 65
77 80 76 76 75 71 68 63 58 63 66 72 71 71 58 59 61 61 56 54 53 53 48 52 55 55 58 60 64 67 68 69 68 68 66 67 71 72 71 69 65 65 63 63
85 82 89 92 81 70 78 75 72 65 61 60 64 61 57 61 57 53 53 49 47 48 56 63 63 66 70 70 71 74 77 71 67 69 70 71 68 70 71 69 63 60 61 62
77 77 78 84 88 94 97 78 73 77 79 78 77 72 64 61 59 57 55 56 58 62 59 68 72 75 76 74 73 74 68 68 69 73 74 74 74 70 64 62 59 62 63 63
69 72 79 82 88 87 83 86 82 86 89 84 79 75 74 70 69 68 64 64 66 70 65 70 69 72 72 71 69 66 67 68 67 65 66 67 58 59 56 56 60 62 65 65
69 76 82 79 81 86 81 68 66 73 88 75 81 75 65 65 72 78 74 73 82 74 65 69 73 74 73 72 71 67 67 66 60 62 55 51 50 55 57 56 62 65 67 67
86 74 78 76 81 85 75 68 60 65 68 58 60 68 69 73 76 79 81 83 80 71 66 69 74 74 71 72 73 69 66 58 58 58 63 62 65 64 59 58 56 62 65 67
89 79 92 94 93 90 76 73 67 69 77 74 73 79 81 84 88 91 93 83 77 74 71 72 73 74 71 75 72 66 64 61 62 57 63 66 63 60 60 56 58 60 64 64
80 80 71 56 48 55 72 74 70 67 73 73 75 77 78 82 82 78 70 70 76 77 69 66 66 69 65 69 70 67 67 65 60 61 61 63 67 61 59 59 59 58 59 63
67 72 91 85 85 81 77 74 64 59 64 61 77 76 85 80 69 61 59 66 75 73 65 58 59 64 69 72 71 73 67 69 67 66 70 66 65 66 64 61 60 60 63 67
93 91 83 83 82 75 68 71 74 77 89 87 83 86 84 77 72 76 62 63 65 65 63 58 64 63 64 66 78 79 73 71 75 78 82 75 70 68 68 66 64 57 66 64
88 93 102 107 100 99 95 91 92 96 92 94 96 86 72 65 63 62 71 75 80 71 65 59 63 68 67 71 81 79 79 75 83 89 91 88 82 78 72 70 60 63 69 60
Wind_Direction
277 277 285 290 281 281 282 284 285 291 288 282 285 283 282 273 275 281 282 285 289 289 286 287 286 290 290 292 293 291 290 287 286 286 287 290 292 292 289 287 289 291 290 286
278 277 286 280 280 282 283 285 284 283 284 278 282 283 281 278 278 277 284 284 284 285 286 286 288 287 289 291 290 287 285 284 284 284 287 290 292 292 291 291 291 293 291 289
276 280 279 277 277 277 281 281 286 285 285 281 283 282 281 282 281 282 282 283 283 281 281 285 286 288 288 285 282 282 282 282 281 283 287 290 292 292 292 292 293 291 289 289
271 275 276 275 275 277 275 277 278 281 279 282 280 285 284 286 284 282 281 279 285 283 284 284 286 285 280 277 279 279 278 279 284 286 288 291 293 294 296 295 292 292 289 290
278 274 273 272 275 270 276 275 275 276 277 279 276 283 292 291 289 290 289 290 293 287 289 285 279 282 278 275 276 276 277 282 286 289 293 293 295 295 296 297 295 294 290 290
276 273 270 273 272 269 271 273 273 274 275 274 278 282 286 288 290 291 295 294 296 303 300 284 278 274 267 268 270 272 278 283 288 298 302 303 299 297 297 296 296 295 294 292
277 273 269 269 271 271 272 271 272 271 270 275 282 282 286 289 295 296 296 304 303 308 296 292 279 275 272 266 271 277 280 285 292 297 299 298 299 297 295 295 294 292 293 290
276 272 272 269 268 268 267 267 266 270 274 277 276 276 285 289 288 292 294 300 302 289 290 283 269 283 283 280 279 279 282 288 293 296 296 299 300 301 295 292 292 293 294 292
281 275 271 271 271 267 265 264 269 268 270 273 276 279 281 285 289 290 295 303 265 304 280 269 279 288 282 276 277 279 283 288 293 294 298 299 302 303 300 296 293 292 292 293
277 277 271 270 266 269 270 270 270 270 270 272 272 277 284 287 288 294 303 287 295 293 289 282 284 282 283 282 281 283 287 291 290 294 299 299 297 302 300 297 294 293 291 291
277 277 274 271 269 273 269 269 270 269 268 269 274 275 278 281 285 295 297 295 294 296 282 282 282 280 281 283 284 285 285 286 288 292 294 294 296 300 296 295 294 293 292 291
273 271 271 275 272 268 268 270 266 266 272 272 271 266 268 280 285 285 282 288 291 286 284 276 281 283 282 285 282 281 283 284 286 290 290 288 291 294 292 293 292 292 291 290
278 273 273 276 275 272 268 271 273 273 266 265 270 266 272 273 276 280 282 286 281 279 279 277 280 281 287 287 285 286 285 285 286 286 288 286 287 290 290 291 292 291 291 291
275 276 275 274 274 270 267 267 268 266 263 268 267 272 264 274 277 276 281 279 279 283 282 280 279 281 281 282 284 284 284 285 285 289 290 286 286 290 291 291 293 290 290 290
268 276 274 274 277 274 272 264 263 268 267 269 272 273 277 277 278 278 272 272 273 276 277 280 281 282 283 284 284 284 287 292 292 291 289 288 288 288 287 287 287 287 288 287
262 271 274 274 274 274 273 269 269 269 272 274 277 274 279 280 272 268 274 274 266 268 274 280 282 278 278 282 283 284 288 290 291 287 286 287 286 284 283 285 288 288 289 291
276 275 271 275 277 274 264 276 274 273 275 283 281 285 281 278 280 273 264 264 268 274 287 281 278 278 283 284 288 288 287 287 285 283 282 285 284 286 286 286 286 288 288 287
271 268 270 270 271 267 277 274 266 268 269 273 279 281 282 281 279 272 270 274 273 276 282 279 280 283 286 286 282 283 284 282 284 285 286 283 280 283 289 289 286 289 288 283
268 266 266 269 271 271 270 275 278 275 275 278 278 279 280 276 271 265 270 280 277 277 278 278 271 273 275 276 278 281 284 285 284 283 283 283 287 287 289 291 289 287 283 282
273 271 270 272 275 275 279 277 283 288 278 276 281 279 274 270 268 269 273 275 276 278 270 266 265 268 273 276 277 280 283 285 279 279 277 279 285 295 297 296 290 286 285 284
270 270 274 275 270 274 273 275 285 266 275 278 273 269 268 267 272 273 273 272 272 273 266 262 269 271 272 276 278 279 280 274 274 276 285 292 293 293 295 293 294 288 288 285
264 270 267 268 272 273 274 276 267 266 268 266 263 268 273 275 276 278 279 274 273 272 268 266 273 279 285 285 275 274 273 268 271 281 293 293 294 292 289 287 287 293 295 286
261 257 252 254 251 265 278 276 272 266 269 265 269 277 277 276 273 271 273 275 275 272 271 272 274 274 284 281 272 272 267 265 266 285 291 288 291 295 293 289 288 290 298 300
249 251 248 251 256 262 260 261 250 258 262 258 275 268 267 264 261 261 273 275 273 269 262 265 259 260 270 275 276 275 267 265 264 280 293 291 292 294 293 292 289 288 295 296
254 249 248 254 258 247 244 248 251 256 264 262 261 265 266 256 254 257 263 276 264 258 256 255 258 266 272 273 277 273 269 267 268 279 285 292 295 295 294 293 290 289 293 289
259 256 254 254 251 254 254 257 262 262 258 256 253 251 248 247 246 251 267 275 267 257 255 254 258 263 266 275 273 270 266 270 280 280 281 285 291 296 294 289 289 288 292 284